CZ-6A DEB, 55554

Orbit data source: Space-Track

CZ-6A DEB, 55554 is space debris in SSO originally from a launch on Fri, 11 Nov 2022 UTC launched from the Taiyaun Space Center, China (TSC). Debris objects in space refer to the collection of defunct objects orbiting the Earth. Examples of debris include non-operational satellites, rocket bodies, and fragments generated from explosions, collisions, or faulty payload assembly.

Loading next visibility...
Identifier
55554, 2022-151ZC
Orbit
SSO
Country
Flag of CNCN / PRC
Related business
Manufacturer
SAST
Mission
Spacecraft
Bus & Motor
Unknown
Mass
Unknown
Launch date (UTC)
2022-11-11 (4 years ago)
Launch vehicle
Unknown
Launch site
Taiyaun Space Center, China (TSC)
Object type
Payload
Rocket body
Debris
Shape & HBR
Unknown shape, 0.1 m
Radar Cross Section
Small (<0.1 m²)

Expand to show TLE details & history
Last TLE update: 3 days ago

TLE from 3 days ago
0 CZ-6A DEB
1 55554U 22151ZC  26260.92384036  .00001762  00000-0  89780-3 0  9997
2 55554  98.8240 255.8945 0058402  61.6657 299.0390 14.16144065197983
Epoch: 2026-09-17T22:10Z
TLE epoch observation values (Epoch: 2026-09-17T22:10:19.807Z)
Latitude
-0.00008°
Longitude
-73.54213°
Altitude
821.055 km
Speed
7.453 km/s
True Right ascension
17h 03m 34s
True Declination
0° 00' 00"
Sunlit
Object was in daylight at epoch
Visualization orbit readout
Latitude
Unknown
Longitude
Unknown
Altitude
Unknown
Speed
Unknown
Apparent Right ascension
Unknown
Apparent Declination
Unknown
Sunlit
N/A
Visualization observer readout
Local Sidereal Time
06:57:36
Azimuth
Unknown
Elevation
Unknown
Doppler factor
Unknown
Orbital elements
Apogee altitude
877.722 km
Perigee altitude
793.462 km
Semi-major axis
7,213.729 km
Eccentricity
0.00584
Inclination
98.824°
RAAN
255.8945°
Arg. of periapsis
61.6657°
True anomaly
298.45182°
Mean anomaly
299.039°
Eccentric anomaly
298.74562°
Mean motion
3.54245 °/min
Orbital period
101.62 mins
BSTAR
0.0008978
Loading maneuver chart data...
Computing Atmospheric mass density...

Documentation

Showing up to 5 results
|